Regional Weather Roundup
Issued by NWS Newport/Morehead, NC

Current Version | Previous Version | Text Only | Print | Product List | Glossary On
Versions: 1 2 3 4 5 6 7 8 9 10 11 12 13 14 15 16 17 18 19 20 21 22 23 24 25 26 27 28 29 30 31 32 33 34 35 36 37 38 39 40 41 42 43 44 45 46 47 48 49 50
270
ASUS42 KMHX 212014
RWRMHX
WEATHER ROUNDUP FOR EASTERN NORTH CAROLINA
NATIONAL WEATHER SERVICE NEWPORT/MOREHEAD CITY NC
400 PM EDT FRI JUL 21 2017

NOTE: "FAIR" INDICATES FEW OR NO CLOUDS BELOW 12,000 FEET
WITH NO SIGNIFICANT WEATHER AND/OR OBSTRUCTIONS TO VISIBILITY

NCZ015>017-031-032-045>047-102-103-212100-
NORTH COAST

CITY           SKY/WX    TMP DP  RH WIND       PRES   REMARKS
EDENTON        MOSUNNY   94  78  58 CALM      29.94F HX 110
ELIZABETH CITY PTSUNNY   92  79  65 SW8       29.93F HX 108
KITTY HAWK     CLEAR     90  77  65 S6        29.94F HX 103
MANTEO         PTSUNNY   87  79  77 S15       29.95F HX 101

$$

NCZ045>047-081-094-103-104-212100-
CENTRAL COAST

CITY           SKY/WX    TMP DP  RH WIND       PRES   REMARKS
FRISCO         SUNNY     86  77  74 SW12      29.98F

$$

NCZ095-097-098-100-101-212100-
SOUTHERN COAST

CITY           SKY/WX    TMP DP  RH WIND       PRES   REMARKS
BEAUFORT       SUNNY     86  78  77 SW16      29.98F
CEDAR ISLAND   NOT AVBL
JACKSONVILLE   MOSUNNY   91  78  65 S14       29.96F HX 106
PINEY ISLAND   CLEAR    N/A N/A N/A S14       29.97F
WILMINGTON     MOSUNNY   92  74  55 S10       29.98F HX 101


$$

NCZ011>013-027>030-043-044-078>080-089-090>093-098-212100-
COASTAL PLAIN

CITY           SKY/WX    TMP DP  RH WIND       PRES   REMARKS
AHOSKIE          N/A     91  77  65 CALM      29.94F HX 104
CLINTON        MOSUNNY   92  75  56 S3        29.97F HX 103
ELIZABETHTOWN  NOT AVBL
GOLDSBORO      MOSUNNY   96  74  48 SW9       29.94F HX 106
GREENVILLE     MOSUNNY   97  72  44 SW9       29.96F HX 105
HAVELOCK       SUNNY     91  76  61 S13       29.97F HX 103
KENANSVILLE    MOSUNNY   95  72  46 CALM      29.96F HX 103
KINSTON        MOSUNNY   97  70  41 SW7       29.95F HX 103
NEW BERN       MOSUNNY   93  73  52 SW8       29.97F HX 102
RICHLANDS      SUNNY     94  75  54 S8        29.97F HX 105
ROCKY MOUNT    PTSUNNY   95  72  47 W9        29.95F HX 103
WASHINGTON     MOSUNNY   94  73  50 S7        29.94F HX 103
WHITEVILLE     MOSUNNY   92  73  52 SW5       29.98S HX 100

$$

AMZ130-135-150-152-154-156-158-170-250-252-270-ANZ085-086-088-633-658-670-212100-
MARINE OBSERVATIONS

STATION/POSITION TIME  TEMP    WIND        PRES    WAVE   SWELL
                       AIR SEA DIR/SP/G            HT/PER HT/PER
                 (UTC) (F)     (DEG/KT/KT) (MB)    (FT/S) (FT/S)
CHESAPEAKE LIGHT NOT AVBL
64 E VA BEACH    1950   81 81  210/ 14/ 17 1014.2    2/ 8   2/ 8
DUCK             1948   84 60  180/  8/ 10 1013.4
2 E DUCK         2000      70                N/A     2/11   2/11
OREGON INLET     1942   85 86  190/ 18/ 20 1014.3
13E OREGON INLT  1948      81                N/A     2/ 8   2/ 8
HATTERAS CG      1942   84 80  220/ 13/ 17 1015.3
DIAMOND BUOY     1950   83 85  220/ 16/ 17 1015.2    4/ 4   2/ 8
CAPE LOOKOUT     2000   84     220/ 13/ 17 1015.2
BEAUFORT LAB     1948   84 82  210/ 13/ 18 1014.8
30 SE NEW RVR IN 1908   81 82  230/ 12/ 16 1016.4
30 SE NEW RVR IN 1943      83                N/A     3/ 7
27 SE WRIGHTSVLE 1908   82 81  220/ 14/ 19 1016.2
5 SE WRIGHTSVLE  1908   82 82  200/ 12/ 17 1016.1
225 S CAPE HAT   1950   83 84  220/ 10/ 12 1018.4    4/ 9   3/ 9
41 SE CHARLESTON 1950   83 84  200/  8/ 10 1016.5    3/ 8   2/ 8

$$




USA.gov is the U.S. government's official web portal to all federal, state and local government web resources and services.